GSAT-10 (GAGAN/PRN 128)

Last updated on Sat Sep 05 2026 00:03:32 GMT+0000 (Coordinated Universal Time)

1 38779U 12051B 26247.46978705 -.00000171 00000+0 00000+0 0 9998 2 38779 0.0736 270.7987 0005574 200.3859 124.5308 1.00269991 50892
UTC large
Height (km)
Speed (km/s)
/
Latitude / Longitude
Inclination (degrees)
Orbital Period (minutes)
Azimuth
Elevation
Range (km)
Doppler Factor

Next 0 passes for location: London (51.5072 / 0.1276)

No passes found over London.
GSAT-10 (GAGAN/PRN 128)